Location: Fort Wayne
(41.1310°N, 85.1290°W)
Time: 19:12:01
(UTC-04:00)

Cosmos 2219 Rocket - Visible Passes

Search period start: 24 August 2016 00:00
Search period end: 03 September 2016 00:00
Orbit: 828 x 847 km, 71.0° (Epoch: 23 August)

Date Brightness Start Highest point End Pass type
(mag) Time Alt. Az. Time Alt. Az. Time Alt. Az.
24 Aug 4.7 01:11:54 12° NE 01:11:54 12° NE 01:12:25 10° NE visible
24 Aug 3.6 02:53:37 33° NNW 02:53:37 33° NNW 02:57:01 10° NNE visible
25 Aug 4.8 00:55:54 10° NE 00:55:54 10° NE 00:55:57 10° NE visible
25 Aug 3.7 02:37:37 31° N 02:37:37 31° N 02:40:43 10° NNE visible
26 Aug 3.9 02:21:35 29° N 02:21:35 29° N 02:24:24 10° NNE visible
27 Aug 4.0 02:05:32 27° N 02:05:32 27° N 02:08:06 10° NNE visible
27 Aug 4.6 03:47:15 10° NW 03:47:46 10° NW 03:48:22 10° NW visible
28 Aug 4.1 01:49:28 25° N 01:49:28 25° N 01:51:47 10° NNE visible
28 Aug 4.6 03:31:10 11° NW 03:31:20 11° NW 03:32:48 10° NNW visible
29 Aug 4.2 01:33:22 23° NNE 01:33:22 23° NNE 01:35:27 10° NNE visible
29 Aug 4.6 03:15:04 12° NW 03:15:04 12° NW 03:16:53 10° NNW visible
30 Aug 4.3 01:17:15 22° NNE 01:17:15 22° NNE 01:19:08 10° NNE visible
30 Aug 4.6 02:58:57 12° NW 02:58:57 12° NW 03:00:52 10° NNW visible
31 Aug 4.3 01:01:06 20° NNE 01:01:06 20° NNE 01:02:48 10° NNE visible
31 Aug 4.7 02:42:48 13° NW 02:42:48 13° NW 02:44:46 10° NNW visible
01 Sep 4.4 00:44:56 19° NNE 00:44:56 19° NNE 00:46:28 10° NNE visible
01 Sep 4.7 02:26:37 14° NW 02:26:37 14° NW 02:28:39 10° NNW visible
02 Sep 4.4 00:28:44 18° NNE 00:28:44 18° NNE 00:30:07 10° NNE visible
02 Sep 4.7 02:10:25 15° NNW 02:10:25 15° NNW 02:12:29 10° NNW visible
